Location: Unspecified
(52.4292°N, 19.3359°E)
Time: 00:47:17
(UTC+02:00)

SR - Pass Details

Date: 29 May 2024
Orbit: 580 x 858 km, 66.7° (Epoch: 12 June)

Event Time Altitude Azimuth Distance (km) Brightness Sun altitude
Rises 01:54:32 0° 316° (NW) 2,871 ? -14.1°
Reaches altitude 10° 01:56:58 10° 307° (NW) 1,937 ? -14.0°
Maximum altitude 02:00:51 34° 243° (WSW) 979 ? -13.8°
Enters shadow 02:02:43 23° 197° (SSW) 1,257 ? -13.7°
Drops below altitude 10° 02:04:39 10° 178° (S) 1,892 - -13.6°
Sets 02:07:00 0° 169° (S) 2,793 - -13.5°
